User: anonymous   Login
Location: Canet
(43.3261°N, 5.3723°E)
Time: 23:26:26
(UTC+00:00)
Language:

Cosmos 1340 - Orbit

View from above orbital plane
View from above orbital plane
View from above satellite
View from above satellite

Ground track
Ground track

The orbit data is extracted from the following two-line orbital elements,

1 13067U 82013A   21103.07753628  .00000842  00000-0  36493-4 0  9999
2 13067  81.1838 304.4707 0003896 135.6637 224.4907 15.21286776139905
Epoch (UTC): 13 April 2021 01:51:39
Eccentricity: 0.0003896
inclination: 81.1838°
perigee height: 499 km
apogee height: 504 km
right ascension of ascending node: 304.4707°
argument of perigee: 135.6637°
revolutions per day: 15.21286776
mean anomaly at epoch: 224.4907°
orbit number at epoch: 13990

The dashed part of the orbit path shows where the satellite is in the earth's shadow,  

DLR